Emporia, KS

9:19 AM CDT on August 27, 2016 (GMT -0500)
Emporia Municipal

Weather History for KEMP - April, 2013

Change the Weather History Date:

Tuesday, April 23, 2013

  Actual Average Record
Temperature  
Mean Temperature 35 °F 58 °F  
Max Temperature 37 °F 70 °F 91 °F (2006)
Min Temperature 32 °F 47 °F 32 °F (2013)
Degree Days  
Heating Degree Days 30 8  
Month to date heating degree days 391 253  
Since 1 July heating degree days 4773 4685  
Cooling Degree Days 0 1  
Month to date cooling degree days 0 17  
Year to date cooling degree days 0 19  
Moisture  
Dew Point 31 °F    
Average Humidity 83    
Maximum Humidity 96    
Minimum Humidity 70    
Precipitation  
Precipitation 0.64 in 0.13 in 1.74 in (2008)
Month to date precipitation 2.89 2.30  
Year to date precipitation 7.35 6.69  
Sea Level Pressure  
Sea Level Pressure 30.14 in    
Wind  
Wind Speed 17 mph (North)    
Max Wind Speed 30 mph    
Max Gust Speed 38 mph    
Visibility 4 miles    
Events Rain , Snow    
T = Trace of Precipitation, MM = Missing Value Source: NWS Daily Summary

Daily Weather History Graph

Daily Weather History Graph

Search for Another Location

Airport or City:

Trip Planner

Search our weather history database for the weather conditions in past years. The results will help you decide how hot, cold, wet, or windy it might be!

Date:

Astronomy

Apr. 23, 2013 Rise Set
Actual Time 6:37 AM CDT 8:08 PM CDT
Civil Twilight 6:09 AM CDT 8:36 PM CDT
Nautical Twilight 5:36 AM CDT 9:10 PM CDT
Astronomical Twilight 5:00 AM CDT 9:46 PM CDT
Moon 6:06 PM CDT (4/23) 5:04 AM CDT (4/23)
Length of Visible Light 14h 27m
Length of Day
13h 31m
Waxing Gibbous, 94% of the Moon is Illuminated
Apr 23
Waxing Gibbous
Apr 25
Full
May 2
Last Quarter
May 9
New
May 17
First Quarter

Hourly Weather History & Observations

Time (CDT) Temp. Windchill Dew Point Humidity Pressure Visibility Wind Dir Wind Speed Gust Speed Precip Events Conditions
12:07 AM 39.2 °F 31.2 °F 37.4 °F 93% 30.07 in 10.0 mi North 13.8 mph - N/A   Overcast
12:53 AM 37.9 °F 27.6 °F 35.1 °F 89% 30.04 in 3.0 mi NNE 20.7 mph 27.6 mph 0.06 in Rain Rain
1:01 AM 37.4 °F 27.2 °F 35.6 °F 93% 30.05 in 2.0 mi North 19.6 mph 28.8 mph 0.04 in Rain Heavy Rain
1:11 AM 37.4 °F 27.5 °F 35.6 °F 93% 30.06 in 4.0 mi North 18.4 mph 23.0 mph 0.06 in Rain Light Rain
1:41 AM 37.4 °F 28.2 °F 33.8 °F 87% 30.06 in 4.0 mi North 16.1 mph 26.5 mph 0.09 in Rain Rain
1:53 AM 37.0 °F 27.4 °F 34.0 °F 89% 30.06 in 4.0 mi North 17.3 mph 29.9 mph 0.11 in Rain Rain
2:28 AM 35.6 °F 25.2 °F 33.8 °F 93% 30.06 in 6.0 mi North 18.4 mph 29.9 mph 0.06 in Rain Light Rain
2:53 AM 36.0 °F 26.0 °F 33.1 °F 89% 30.08 in 4.0 mi North 17.3 mph 38.0 mph 0.10 in Rain Rain
3:07 AM 35.6 °F 23.4 °F 33.8 °F 93% 30.05 in 4.0 mi North 25.3 mph 32.2 mph 0.03 in Rain Rain
3:33 AM 35.6 °F 24.5 °F 33.8 °F 93% 30.07 in 2.5 mi North 20.7 mph 28.8 mph 0.17 in Rain Heavy Rain
3:53 AM 34.0 °F 21.3 °F 32.0 °F 92% 30.06 in 3.0 mi North 25.3 mph 34.5 mph 0.26 in Rain Rain
4:02 AM 33.8 °F 20.8 °F 32.0 °F 93% 30.05 in 6.0 mi North 26.5 mph 35.7 mph 0.01 in Rain Light Rain
4:53 AM 34.0 °F 23.4 °F 30.9 °F 89% 30.06 in 5.0 mi North 17.3 mph 36.8 mph 0.06 in Rain Light Rain
5:53 AM 34.0 °F 23.0 °F 30.9 °F 89% 30.06 in 6.0 mi North 18.4 mph 31.1 mph 0.04 in Rain Light Rain
6:53 AM 33.1 °F 20.6 °F 30.0 °F 89% 30.07 in 8.0 mi North 23.0 mph 29.9 mph 0.01 in Rain Light Rain
7:53 AM 33.1 °F 21.5 °F 30.0 °F 89% 30.13 in 2.5 mi North 19.6 mph 27.6 mph 0.02 in Snow Light Snow
8:02 AM 33.8 °F 22.8 °F 30.2 °F 87% 30.11 in 1.2 mi North 18.4 mph 27.6 mph 0.00 in Snow Light Snow
8:20 AM 33.8 °F 21.6 °F 30.2 °F 87% 30.10 in 1.2 mi North 23.0 mph 33.4 mph 0.01 in Snow Light Snow
8:27 AM 33.8 °F 22.2 °F 30.2 °F 87% 30.10 in 1.5 mi North 20.7 mph 28.8 mph 0.01 in Snow Light Snow
8:40 AM 32.0 °F 19.8 °F 30.2 °F 93% 30.10 in 3.0 mi North 20.7 mph 27.6 mph 0.01 in Rain Light Rain
8:53 AM 33.1 °F 22.6 °F 30.0 °F 89% 30.12 in 5.0 mi North 16.1 mph 26.5 mph 0.01 in   Overcast
9:53 AM 33.1 °F 21.9 °F 28.9 °F 85% 30.13 in 7.0 mi North 18.4 mph 26.5 mph N/A   Overcast
10:53 AM 32.0 °F 20.5 °F 28.9 °F 88% 30.16 in 6.0 mi North 18.4 mph 29.9 mph N/A   Overcast
11:53 AM 33.1 °F 21.2 °F 30.0 °F 89% 30.16 in 4.0 mi North 20.7 mph 29.9 mph N/A   Overcast
12:53 PM 32.0 °F 21.2 °F 28.9 °F 88% 30.18 in 3.0 mi North 16.1 mph 26.5 mph N/A   Overcast
1:43 PM 33.8 °F 23.2 °F 30.2 °F 87% 30.14 in 2.5 mi North 17.3 mph 25.3 mph 0.00 in   Overcast
1:53 PM 32.0 °F 19.8 °F 28.9 °F 88% 30.18 in 2.5 mi North 20.7 mph 28.8 mph 0.00 in Rain Light Rain
2:01 PM 33.8 °F 22.5 °F 30.2 °F 87% 30.14 in 3.0 mi North 19.6 mph 27.6 mph 0.00 in   Overcast
2:53 PM 33.1 °F 21.9 °F 30.0 °F 89% 30.17 in 5.0 mi North 18.4 mph 27.6 mph 0.00 in   Overcast
3:12 PM 33.8 °F 22.2 °F 30.2 °F 87% 30.13 in 8.0 mi North 20.7 mph 27.6 mph N/A   Overcast
3:53 PM 35.1 °F 24.1 °F 28.9 °F 78% 30.17 in 10.0 mi North 19.6 mph 26.5 mph N/A   Overcast
4:53 PM 35.1 °F 24.1 °F 28.9 °F 78% 30.16 in 10.0 mi NNW 19.6 mph 26.5 mph N/A   Overcast
5:53 PM 35.1 °F 25.2 °F 28.0 °F 76% 30.17 in 10.0 mi NNW 16.1 mph 25.3 mph N/A   Overcast
6:25 PM 35.6 °F 25.5 °F 28.4 °F 75% 30.14 in 10.0 mi North 17.3 mph 23.0 mph N/A   Overcast
6:53 PM 36.0 °F 26.0 °F 27.0 °F 70% 30.17 in 10.0 mi NNW 17.3 mph 25.3 mph N/A   Overcast
7:53 PM 36.0 °F 28.0 °F 28.9 °F 76% 30.19 in 10.0 mi NNW 11.5 mph - N/A   Overcast
8:53 PM 36.0 °F 28.5 °F 28.9 °F 76% 30.21 in 10.0 mi NW 10.4 mph - N/A   Overcast
9:53 PM 34.0 °F 25.5 °F 28.9 °F 82% 30.26 in 5.0 mi NNW 11.5 mph - 0.00 in Snow Light Snow
10:07 PM 33.8 °F 26.4 °F 28.4 °F 81% 30.22 in 2.0 mi NNW 9.2 mph - 0.00 in Snow Light Snow
10:12 PM 33.8 °F 27.0 °F 30.2 °F 87% 30.23 in 1.2 mi NNW 8.1 mph - 0.00 in Snow Light Snow
10:26 PM 32.0 °F 26.4 °F 30.2 °F 93% 30.22 in 1.0 mi NNW 5.8 mph - 0.01 in Snow Light Snow
10:33 PM 32.0 °F 24.8 °F 30.2 °F 93% 30.22 in 1.0 mi NNW 8.1 mph - 0.01 in Snow Light Snow
10:44 PM 32.0 °F 25.6 °F 30.2 °F 93% 30.23 in 1.0 mi NW 6.9 mph - 0.02 in Snow Light Snow
10:47 PM 32.0 °F 24.8 °F 30.2 °F 93% 30.23 in 1.2 mi WNW 8.1 mph - 0.02 in Snow Light Snow
10:53 PM 32.0 °F 25.6 °F 30.9 °F 96% 30.27 in 1.5 mi NW 6.9 mph - 0.02 in Snow Light Snow
11:10 PM 32.0 °F 24.2 °F 30.2 °F 93% 30.23 in 2.0 mi NW 9.2 mph - 0.00 in Snow Light Snow
11:20 PM 32.0 °F 23.6 °F 30.2 °F 93% 30.22 in 1.8 mi NW 10.4 mph - 0.00 in Snow Light Snow
11:49 PM 32.0 °F 24.8 °F 30.2 °F 93% 30.22 in 2.5 mi NW 8.1 mph - 0.01 in Snow Light Snow
11:53 PM 32.0 °F 24.2 °F 30.9 °F 96% 30.27 in 3.0 mi NW 9.2 mph - 0.01 in   Overcast